Weather History for LLET - August, 2014

Change the Weather History Date:

Saturday, August 9, 2014

  Actual Average Record
Temperature  
Mean Temperature 90 °F -  
Max Temperature 100 °F 100 °F 109 °F (2001)
Min Temperature 80 °F 80 °F 78 °F (2004)
Cooling Degree Days 25    
Growing Degree Days 40 (Base 50)    
Moisture  
Dew Point 59 °F    
Average Humidity 34    
Maximum Humidity 58    
Minimum Humidity 11    
Precipitation  
Precipitation 0.00 in -13.12 in - ()
Sea Level Pressure  
Sea Level Pressure 29.77 in    
Wind  
Wind Speed 9 mph ()    
Max Wind Speed 20 mph    
Max Gust Speed -    
Visibility 9.0 miles    
Events      
Averages and records for this station are not official NWS values.
T = Trace of Precipitation, MM = Missing Value Source: Averaged Metar Reports

Daily Weather History Graph

Daily Weather History Graph

Search for Another Location

Airport or City:

Trip Planner

Search our weather history database for the weather conditions in past years. The results will help you decide how hot, cold, wet, or windy it might be!

Date:

Astronomy

Aug. 09, 2014 Rise Set
Actual Time 6:04 AM IDT 7:26 PM IDT
Civil Twilight 5:39 AM IDT 7:51 PM IDT
Nautical Twilight 5:08 AM IDT 8:21 PM IDT
Astronomical Twilight 4:37 AM IDT 8:53 PM IDT
Moon 6:11 PM IDT (8/9) 4:22 AM IDT (8/9)
Length of Visible Light 14h 12m
Length of Day
13h 21m
Waxing Gibbous, 97% of the Moon is Illuminated
Aug 9
Waxing Gibbous
Aug 10
Full
Aug 17
Last Quarter
Aug 25
New
Sep 2
First Quarter

Hourly Weather History & Observations

Time (IDT) Temp. Heat Index Dew Point Humidity Pressure Visibility Wind Dir Wind Speed Gust Speed Precip Events Conditions
12:00 AM 89 °F - 58 °F 25% 29.79 in 9 mi North 3.5 mph - -  
3:00 AM 84 °F - 61 °F 36% 29.81 in 9 mi NNE 6.9 mph - -  
6:00 AM 81 °F - 64 °F 47% 29.82 in - NNE 2.3 mph - -  
6:30 AM 80.6 °F 82.3 °F 64.4 °F 58% 29.83 in - NE 11.5 mph - N/A   Clear
6:50 AM 80.6 °F 82.3 °F 64.4 °F 58% 29.86 in - NE 13.8 mph - N/A   Clear
7:50 AM 82.4 °F 83.9 °F 64.4 °F 54% 29.86 in - NE 13.8 mph - N/A   Clear
8:50 AM 84.2 °F 85.6 °F 64.4 °F 51% 29.86 in - NE 13.8 mph - N/A   Clear
9:00 AM 86 °F - 64 °F 38% 29.84 in - NE 5.8 mph - -  
9:50 AM 86.0 °F 87.3 °F 64.4 °F 48% 29.83 in - ENE 12.7 mph - N/A   Clear
10:50 AM 87.8 °F 88.5 °F 62.6 °F 43% 29.83 in - NE 13.8 mph - N/A   Clear
11:50 AM 91.4 °F 92.1 °F 62.6 °F 38% 29.80 in - ENE 12.7 mph - N/A   Clear
12:00 PM 94 °F - 61 °F 23% 29.80 in - NNE 5.8 mph - -  
12:50 PM 95.0 °F 94.4 °F 59.0 °F 30% 29.80 in - ENE 12.7 mph - N/A   Clear
1:50 PM 96.8 °F 95.1 °F 55.4 °F 25% 29.77 in - ENE 13.8 mph - N/A   Clear
2:50 PM 98.6 °F 97.2 °F 55.4 °F 24% 29.74 in - ENE 15.0 mph - N/A   Clear
3:00 PM 99 °F - 50 °F 11% 29.73 in - NE 8.1 mph - -  
3:50 PM 100.4 °F 98.4 °F 53.6 °F 21% 29.71 in - NE 16.1 mph - N/A   Clear
4:50 PM 100.4 °F - 51.8 °F 20% 29.71 in - NE 17.3 mph - N/A   Clear
5:50 PM 100.4 °F 98.4 °F 53.6 °F 21% 29.68 in - NE 16.1 mph - N/A   Clear
6:00 PM 99 °F - 49 °F 11% 29.68 in - NNE 9.2 mph - -  
6:50 PM 98.6 °F 97.2 °F 55.4 °F 24% 29.68 in - NE 19.6 mph - N/A   Clear
7:50 PM 95.0 °F 93.7 °F 57.2 °F 28% 29.71 in - NNE 15.0 mph - N/A   Clear
8:50 PM 93.2 °F 94.1 °F 62.6 °F 36% 29.71 in - North 12.7 mph - N/A   Clear
9:00 PM 92 °F - 60 °F 24% 29.73 in - NNW 8.1 mph - -  
9:50 PM 89.6 °F 89.5 °F 60.8 °F 38% 29.77 in - North 10.4 mph - N/A   Clear
10:50 PM 87.8 °F 87.6 °F 60.8 °F 40% 29.77 in - North 11.5 mph - N/A   Clear